Location: Poughquag
(41.6090°N, 73.6820°W)
Time: 12:52:13
(UTC-04:00)

A-11 Canister half - Pass Details

Date: 29 May 2020
Orbit: 1527 x 1682 km, 47.3° (Epoch: 06 July)

Event Time Altitude Azimuth Distance (km) Brightness Sun altitude
Rises 07:06:08 0° 206° (SSW) 4,667 11.2 16.7°
Reaches altitude 10° 07:09:25 10° 199° (SSW) 3,683 10.7 17.3°
Maximum altitude 07:17:45 39° 135° (SE) 2,150 10.4 18.8°
Drops below altitude 10° 07:26:11 10° 71° (ENE) 3,736 13.2 20.4°
Sets 07:29:30 0° 64° (ENE) 4,740 12.9 21.0°
